Regional Weather Roundup
Issued by NWS

Home | Current Version | Previous Version | Graphics & Text | Print | Product List | Glossary On
Versions: 1 2 3 4 5 6 7 8 9 10 11 12 13 14 15 16 17 18 19 20 21 22 23 24 25 26 27 28 29 30 31 32 33 34 35 36 37 38 39 40 41 42 43 44 45 46 47 48 49 50
000
ASUS43 KLSX 120657
RWRMO

WEATHER SUMMARY FOR MISSOURI
NATIONAL WEATHER SERVICE SPRINGFIELD MO
100 AM CST TUE DEC 12 2017

NOTE: "FAIR" INDICATES FEW OR NO CLOUDS BELOW 12,000 FEET WITH NO
       SIGNIFICANT WEATHER AND/OR OBSTRUCTIONS TO VISIBILITY.
       CURRENT SKY AND/OR WEATHER CONDITIONS ARE NOT AVAILABLE FOR
       CHILLICOTHE AND FARMINGTON.

MOZ001>031-035>038-043-044-053-054-120800-
...NORTHERN AND WESTERN MISSOURI...

CITY           SKY/WX    TMP DP  RH WIND       PRES   REMARKS
KANSAS CTY INT CLEAR     31  23  72 N14G20    30.27R WCI  21
LEE`S SUMMIT   CLEAR     32  21  64 N16G29    30.27R WCI  21
ST JOSEPH      CLEAR     29  22  75 N16G24    30.31R WCI  17
CHILLICOTHE      N/A     27  17  66 NW9       30.26R WCI  18

$$
MOZ066>068-077>081-088>096-101>105-120800-
...SOUTHWEST MISSOURI...

CITY           SKY/WX    TMP DP  RH WIND       PRES   REMARKS
SPRINGFIELD    PTCLDY    39  25  57 NW22G29   30.16R WCI  29
JOPLIN         CLEAR     38  24  57 NW18G26   30.27R WCI  28

$$
MOZ032>034-039>042-045>050-055>058-069>072-120800-
...CENTRAL MISSOURI...

CITY           SKY/WX    TMP DP  RH WIND       PRES   REMARKS
COLUMBIA       NOT AVBL
JEFFERSON CITY CLOUDY    39  28  64 NW16G24   30.16S
ROLLA          CLOUDY    38  30  73 NW20G33   30.12R WCI  28
SEDALIA        PTCLDY    33  25  72 NW15G24   30.23R WCI  23
WARRENSBURG    CLEAR     32  23  69 NW12G17   30.24S WCI  23

$$
MOZ051-052-059>065-120800-
...EAST CENTRAL MISSOURI...

CITY           SKY/WX    TMP DP  RH WIND       PRES   REMARKS
ST LOUIS INTL  CLOUDY    41  32  70 NW21G29   30.06R
SPIRIT OF STL  CLOUDY    41  30  65 NW17G28   30.08R

$$
MOZ072>076-082>087-097>100-106>115-120800-
...SOUTH CENTRAL AND SOUTHEAST MISSOURI...

CITY           SKY/WX    TMP DP  RH WIND       PRES   REMARKS
CAPE GIRARDEAU CLOUDY    47  32  56 N22G30    30.02R
FARMINGTON     CLOUDY    43  32  65 NW16G23   30.05R
POPLAR BLUFF   CLOUDY    49  33  54 N14       30.03R
WEST PLAINS    LGT RAIN  45  32  60 NW15G26   30.10R

$$



USA.gov is the U.S. government's official web portal to all federal, state and local government web resources and services.